VTI856 VOHS-VOBL

Flight info

Callsign VTI856
Flight time N/A
Altitude 32000
Route LURGI5 LURGI Q21 TELUV TELUV7F
Aircraft A21N/M-SDE2E3FGHIRWXY/LB1

Departure

Time 2026-05-05 12:26
Airport Rajiv Gandhi International Airport (VOHS)

Arrival

Time N/A
Airport Kempegowda International Airport Bengaluru (VOBL)
Time Latitude Longitude Altitude Speed Heading
2026-05-05 11:22 17.23407 78.42813 1983 ft 0 kts
2026-05-05 12:02 17.23399 78.42813 1986 ft 3 kts
2026-05-05 12:02 17.23381 78.42813 1986 ft 3 kts
2026-05-05 12:03 17.23363 78.42812 1984 ft 3 kts
2026-05-05 12:03 17.23347 78.42807 1983 ft 3 kts 29°
2026-05-05 12:03 17.23333 78.42795 1983 ft 3 kts 74°
2026-05-05 12:03 17.23332 78.42789 1983 ft 0 kts 97°
2026-05-05 12:07 17.23330 78.42803 1985 ft 4 kts 95°
2026-05-05 12:07 17.23328 78.42846 1984 ft 8 kts 92°
2026-05-05 12:08 17.23328 78.42890 1987 ft 8 kts 89°
2026-05-05 12:08 17.23329 78.42946 1988 ft 8 kts 90°
2026-05-05 12:08 17.23330 78.43003 1987 ft 7 kts 89°
2026-05-05 12:08 17.23330 78.43057 1986 ft 9 kts 88°
2026-05-05 12:09 17.23329 78.43121 1990 ft 7 kts 99°
2026-05-05 12:09 17.23298 78.43159 1989 ft 7 kts 160°
2026-05-05 12:09 17.23247 78.43162 1987 ft 5 kts 180°
2026-05-05 12:09 17.23245 78.43162 1987 ft 0 kts 180°
2026-05-05 12:11 17.23235 78.43162 1987 ft 3 kts 179°
2026-05-05 12:11 17.23199 78.43163 1988 ft 6 kts 179°
2026-05-05 12:11 17.23194 78.43163 1988 ft 0 kts 179°
2026-05-05 12:12 17.23192 78.43163 1988 ft 0 kts 179°
2026-05-05 12:14 17.23185 78.43163 1988 ft 3 kts 179°
2026-05-05 12:14 17.23151 78.43164 1988 ft 6 kts 177°
2026-05-05 12:14 17.23110 78.43177 1987 ft 6 kts 147°
2026-05-05 12:14 17.23090 78.43210 1988 ft 4 kts 104°
2026-05-05 12:15 17.23090 78.43248 1987 ft 7 kts 91°
2026-05-05 12:15 17.23090 78.43305 1988 ft 9 kts 89°
2026-05-05 12:15 17.23091 78.43379 1989 ft 11 kts 89°
2026-05-05 12:15 17.23092 78.43464 1990 ft 12 kts 89°
2026-05-05 12:16 17.23092 78.43554 1992 ft 12 kts 93°
2026-05-05 12:16 17.23087 78.43569 1992 ft 2 kts 120°
2026-05-05 12:16 17.23071 78.43588 1992 ft 4 kts 123°
2026-05-05 12:16 17.23072 78.43611 1993 ft 4 kts 76°
2026-05-05 12:17 17.23086 78.43647 1993 ft 7 kts 66°
2026-05-05 12:17 17.23096 78.43696 1994 ft 8 kts 86°
2026-05-05 12:17 17.23096 78.43761 1994 ft 10 kts 90°
2026-05-05 12:17 17.23097 78.43840 1996 ft 11 kts 88°
2026-05-05 12:18 17.23099 78.43919 1997 ft 12 kts 88°
2026-05-05 12:18 17.23099 78.44012 1999 ft 13 kts 90°
2026-05-05 12:18 17.23101 78.44112 2001 ft 15 kts 89°
2026-05-05 12:18 17.23102 78.44219 2002 ft 13 kts 89°
2026-05-05 12:19 17.23103 78.44311 2003 ft 11 kts 89°
2026-05-05 12:19 17.23104 78.44403 2004 ft 14 kts 89°
2026-05-05 12:19 17.23105 78.44509 2006 ft 16 kts 89°
2026-05-05 12:19 17.23107 78.44615 2007 ft 8 kts 89°
2026-05-05 12:20 17.23107 78.44679 2005 ft 9 kts 89°
2026-05-05 12:20 17.23108 78.44751 2005 ft 11 kts 89°
2026-05-05 12:20 17.23109 78.44844 2005 ft 14 kts 89°
2026-05-05 12:20 17.23110 78.44937 2006 ft 2 kts 89°
2026-05-05 12:21 17.23110 78.44964 2006 ft 6 kts 89°
2026-05-05 12:21 17.23111 78.45020 2007 ft 9 kts 89°
2026-05-05 12:21 17.23112 78.45099 2007 ft 13 kts 89°
2026-05-05 12:21 17.23114 78.45203 2009 ft 14 kts 89°
2026-05-05 12:22 17.23106 78.45287 2012 ft 10 kts 113°
2026-05-05 12:22 17.23084 78.45317 2011 ft 1 kts 153°
2026-05-05 12:22 17.23069 78.45320 2010 ft 4 kts 175°
2026-05-05 12:22 17.23034 78.45320 2013 ft 0 kts 180°
2026-05-05 12:23 17.23026 78.45320 2014 ft 3 kts 180°
2026-05-05 12:24 17.22995 78.45315 2015 ft 4 kts 200°
2026-05-05 12:24 17.22962 78.45292 2012 ft 7 kts 216°
2026-05-05 12:24 17.22915 78.45251 2013 ft 9 kts 231°
2026-05-05 12:24 17.22910 78.45230 2013 ft 0 kts 269°
2026-05-05 12:25 17.22909 78.45150 2015 ft 31 kts 269°
2026-05-05 12:25 17.22903 78.44720 2006 ft 86 kts 269°
2026-05-05 12:25 17.22892 78.43893 1997 ft 142 kts 269°
2026-05-05 12:25 17.22880 78.42683 1987 ft 185 kts 270°
2026-05-05 12:26 17.22881 78.41350 2472 ft 182 kts 268°
2026-05-05 12:26 17.22873 78.39979 2684 ft 202 kts 266°
2026-05-05 12:26 17.22875 78.38452 2913 ft 209 kts 268°
2026-05-05 12:26 17.22799 78.36983 3629 ft 199 kts 248°
2026-05-05 12:27 17.22021 78.35833 3900 ft 205 kts 207°
2026-05-05 12:27 17.20635 78.35270 4154 ft 224 kts 194°
2026-05-05 12:27 17.19062 78.34796 4407 ft 246 kts 196°
2026-05-05 12:27 17.17385 78.34213 4732 ft 261 kts 198°
2026-05-05 12:28 17.15648 78.33540 5194 ft 269 kts 199°
2026-05-05 12:28 17.13806 78.33109 5659 ft 275 kts 182°
2026-05-05 12:28 17.11874 78.33165 5938 ft 278 kts 174°
2026-05-05 12:28 17.09958 78.33470 5992 ft 280 kts 169°
2026-05-05 12:29 17.08048 78.33902 5995 ft 281 kts 167°
2026-05-05 12:29 17.06168 78.34365 5995 ft 281 kts 167°
2026-05-05 12:29 17.04264 78.34827 5996 ft 280 kts 168°
2026-05-05 12:29 17.02361 78.35263 5996 ft 279 kts 169°
2026-05-05 12:30 17.00464 78.35673 5996 ft 279 kts 169°
2026-05-05 12:30 16.98557 78.36070 5996 ft 279 kts 169°
2026-05-05 12:30 16.96651 78.36455 5994 ft 279 kts 169°
2026-05-05 12:30 16.94734 78.36835 5995 ft 280 kts 169°
2026-05-05 12:31 16.92817 78.37213 5758 ft 281 kts 169°
2026-05-05 12:31 16.90896 78.37592 5345 ft 279 kts 169°
2026-05-05 12:31 16.89633 78.37841 5324 ft 278 kts 169°
2026-05-05 12:31 16.87721 78.38221 5703 ft 282 kts 169°
2026-05-05 12:32 16.85821 78.38597 5952 ft 280 kts 169°
2026-05-05 12:32 16.83920 78.38974 5986 ft 280 kts 169°
2026-05-05 12:32 16.82033 78.39349 5987 ft 280 kts 169°
2026-05-05 12:32 16.80119 78.39730 5990 ft 280 kts 169°
2026-05-05 12:33 16.77579 78.40234 5988 ft 280 kts 170°
2026-05-05 12:33 16.76284 78.40488 5990 ft 280 kts 170°
2026-05-05 12:33 16.74374 78.40861 5992 ft 279 kts 170°
2026-05-05 12:33 16.72469 78.41239 5989 ft 278 kts 170°
2026-05-05 12:34 16.70566 78.41621 5983 ft 279 kts 169°
2026-05-05 12:34 16.68667 78.42004 6214 ft 284 kts 169°
2026-05-05 12:34 16.66748 78.42387 6802 ft 286 kts 170°
2026-05-05 12:34 16.64783 78.42774 7410 ft 289 kts 171°
2026-05-05 12:35 16.62808 78.43162 8013 ft 292 kts 171°
2026-05-05 12:35 16.60812 78.43556 8659 ft 294 kts 171°
2026-05-05 12:35 16.58786 78.43958 9274 ft 298 kts 171°
2026-05-05 12:35 16.56765 78.44362 9877 ft 301 kts 171°
2026-05-05 12:36 16.54677 78.44779 10313 ft 312 kts 171°
2026-05-05 12:36 16.52481 78.45215 10540 ft 329 kts 171°
2026-05-05 12:36 16.50229 78.45661 10747 ft 344 kts 171°
2026-05-05 12:36 16.47846 78.46133 11009 ft 357 kts 171°
2026-05-05 12:37 16.45383 78.46623 11434 ft 362 kts 171°
2026-05-05 12:37 16.42891 78.47119 11938 ft 366 kts 171°
2026-05-05 12:37 16.40424 78.47610 12434 ft 369 kts 171°
2026-05-05 12:37 16.37917 78.48108 12962 ft 372 kts 170°
2026-05-05 12:38 16.35341 78.48619 13356 ft 379 kts 171°
2026-05-05 12:38 16.32735 78.49136 13794 ft 384 kts 171°
2026-05-05 12:38 16.30133 78.49651 14299 ft 384 kts 171°
2026-05-05 12:38 16.27521 78.50168 14876 ft 384 kts 171°
2026-05-05 12:39 16.24936 78.50678 15460 ft 383 kts 172°
2026-05-05 12:39 16.22287 78.51040 16049 ft 382 kts 178°
2026-05-05 12:39 16.19627 78.51079 16601 ft 381 kts 185°
2026-05-05 12:39 16.16977 78.50842 17137 ft 380 kts 188°
2026-05-05 12:40 16.14399 78.50497 18113 ft 366 kts 189°
2026-05-05 12:40 16.11918 78.50106 18972 ft 355 kts 191°
2026-05-05 12:40 16.09518 78.49705 19861 ft 342 kts 191°
2026-05-05 12:40 16.07235 78.49317 20752 ft 331 kts 192°
2026-05-05 12:41 16.04998 78.48940 21592 ft 322 kts 192°
2026-05-05 12:41 16.02792 78.48572 22175 ft 321 kts 192°
2026-05-05 12:41 16.00571 78.48206 22636 ft 323 kts 192°
2026-05-05 12:41 15.98332 78.47840 23061 ft 327 kts 192°
2026-05-05 12:42 15.96076 78.47475 23466 ft 330 kts 192°
2026-05-05 12:42 15.93791 78.47107 23791 ft 333 kts 192°
2026-05-05 12:42 15.91494 78.46739 24105 ft 337 kts 192°
2026-05-05 12:42 15.89184 78.46369 24413 ft 340 kts 192°
2026-05-05 12:43 15.86835 78.45993 24724 ft 343 kts 192°
2026-05-05 12:43 15.84464 78.45614 25030 ft 346 kts 191°
2026-05-05 12:43 15.82073 78.45231 25342 ft 349 kts 191°
2026-05-05 12:43 15.79655 78.44844 25633 ft 352 kts 191°
2026-05-05 12:44 15.77236 78.44457 25926 ft 356 kts 191°
2026-05-05 12:44 15.74812 78.44069 26197 ft 359 kts 191°
2026-05-05 12:44 15.72387 78.43681 26477 ft 361 kts 191°
2026-05-05 12:44 15.69888 78.43281 26746 ft 364 kts 191°
2026-05-05 12:45 15.67389 78.42881 27038 ft 367 kts 191°
2026-05-05 12:45 15.64856 78.42476 27342 ft 368 kts 191°
2026-05-05 12:45 15.62297 78.42068 27596 ft 371 kts 191°
2026-05-05 12:45 15.59729 78.41657 27865 ft 373 kts 191°
2026-05-05 12:46 15.57144 78.41244 28085 ft 376 kts 191°
2026-05-05 12:46 15.54583 78.40835 28339 ft 378 kts 191°
2026-05-05 12:46 15.51970 78.40418 28574 ft 381 kts 191°
2026-05-05 12:46 15.49340 78.39997 28764 ft 384 kts 191°
2026-05-05 12:47 15.46682 78.39573 28994 ft 386 kts 191°
2026-05-05 12:47 15.44024 78.39148 29183 ft 389 kts 191°
2026-05-05 12:47 15.41356 78.38723 29408 ft 392 kts 191°
2026-05-05 12:47 15.38662 78.38294 29648 ft 393 kts 191°
2026-05-05 12:48 15.35949 78.37861 29843 ft 396 kts 191°
2026-05-05 12:48 15.33228 78.37428 30031 ft 397 kts 192°
2026-05-05 12:48 15.30497 78.36992 30280 ft 397 kts 191°
2026-05-05 12:48 15.27792 78.36562 30451 ft 398 kts 191°
2026-05-05 12:49 15.25040 78.36123 30645 ft 400 kts 190°
2026-05-05 12:49 15.22272 78.35681 30735 ft 404 kts 191°
2026-05-05 12:49 15.19498 78.35238 30989 ft 403 kts 191°
2026-05-05 12:49 15.16726 78.34794 31178 ft 404 kts 191°
2026-05-05 12:50 15.13950 78.34350 31411 ft 403 kts 191°
2026-05-05 12:50 15.11173 78.33904 31567 ft 405 kts 191°
2026-05-05 12:50 15.08386 78.33457 31672 ft 408 kts 191°
2026-05-05 12:50 15.05576 78.33006 31845 ft 409 kts 190°
2026-05-05 12:51 14.99966 78.32108 31938 ft 411 kts 190°
2026-05-05 12:51 14.94335 78.31209 31938 ft 409 kts 191°
2026-05-05 12:52 14.88740 78.30315 31941 ft 410 kts 191°
2026-05-05 12:52 14.83124 78.29417 31936 ft 411 kts 190°
2026-05-05 12:53 14.77518 78.28519 31943 ft 411 kts 191°
2026-05-05 12:53 14.71879 78.27615 31939 ft 409 kts 190°
2026-05-05 12:54 14.63417 78.26257 31928 ft 412 kts 190°
2026-05-05 12:54 14.60599 78.25806 31816 ft 408 kts 190°
2026-05-05 12:55 14.57814 78.25361 31810 ft 409 kts 190°
2026-05-05 12:55 14.52202 78.24462 31827 ft 410 kts 190°
2026-05-05 12:56 14.46654 78.23576 31838 ft 399 kts 190°
2026-05-05 12:56 14.41283 78.22717 31838 ft 397 kts 190°
2026-05-05 12:57 14.35913 78.21859 31836 ft 396 kts 190°
2026-05-05 12:57 14.30484 78.20991 31387 ft 394 kts 190°
2026-05-05 12:57 14.27829 78.20567 30817 ft 395 kts 190°
2026-05-05 12:58 14.25116 78.20134 30383 ft 392 kts 190°
2026-05-05 12:58 14.22434 78.19707 30012 ft 387 kts 191°
2026-05-05 12:58 14.19833 78.19292 29476 ft 386 kts 191°
2026-05-05 12:58 14.17175 78.18868 29004 ft 382 kts 192°
2026-05-05 12:59 14.14574 78.18376 28554 ft 377 kts 193°
2026-05-05 12:59 14.11999 78.17835 28036 ft 376 kts 194°
2026-05-05 12:59 14.09449 78.17290 27592 ft 373 kts 193°
2026-05-05 13:00 14.04427 78.16220 26730 ft 366 kts 194°
2026-05-05 13:00 14.01947 78.15694 26313 ft 363 kts 194°
2026-05-05 13:01 13.94631 78.14143 25063 ft 355 kts 194°
2026-05-05 13:01 13.92203 78.13629 24660 ft 353 kts 194°
2026-05-05 13:01 13.89805 78.13121 24169 ft 352 kts 193°
2026-05-05 13:01 13.87442 78.12621 23722 ft 352 kts 193°
2026-05-05 13:02 13.85060 78.12117 23366 ft 347 kts 193°
2026-05-05 13:02 13.82699 78.11618 22891 ft 345 kts 194°
2026-05-05 13:02 13.80381 78.11129 22489 ft 341 kts 194°
2026-05-05 13:02 13.78059 78.10638 22020 ft 339 kts 193°
2026-05-05 13:03 13.75748 78.10149 21515 ft 339 kts 193°
2026-05-05 13:03 13.73464 78.09666 21282 ft 330 kts 193°
2026-05-05 13:03 13.71250 78.09199 21086 ft 319 kts 193°
2026-05-05 13:03 13.69090 78.08743 20784 ft 313 kts 194°
2026-05-05 13:04 13.66977 78.08297 20455 ft 308 kts 193°
2026-05-05 13:04 13.64878 78.07853 20019 ft 307 kts 194°
2026-05-05 13:04 13.62819 78.07418 19641 ft 305 kts 194°
2026-05-05 13:04 13.60752 78.06981 19278 ft 302 kts 194°
2026-05-05 13:05 13.58702 78.06548 18891 ft 300 kts 193°
2026-05-05 13:05 13.56648 78.06114 18473 ft 300 kts 193°
2026-05-05 13:05 13.54599 78.05682 18058 ft 300 kts 193°
2026-05-05 13:05 13.52560 78.05251 17622 ft 298 kts 193°
2026-05-05 13:06 13.50536 78.04825 17215 ft 296 kts 193°
2026-05-05 13:06 13.48526 78.04401 16821 ft 294 kts 192°
2026-05-05 13:06 13.46530 78.03981 16419 ft 292 kts 193°
2026-05-05 13:06 13.44535 78.03560 16032 ft 290 kts 192°
2026-05-05 13:07 13.42568 78.03145 15640 ft 289 kts 193°
2026-05-05 13:07 13.40598 78.02730 15216 ft 289 kts 192°
2026-05-05 13:07 13.38624 78.02314 14751 ft 291 kts 192°
2026-05-05 13:07 13.36660 78.01900 14392 ft 291 kts 192°
2026-05-05 13:08 13.34670 78.01481 14096 ft 291 kts 192°
2026-05-05 13:08 13.32684 78.01063 13805 ft 291 kts 192°
2026-05-05 13:08 13.30704 78.00646 13543 ft 289 kts 192°
2026-05-05 13:08 13.28740 78.00233 13301 ft 288 kts 192°
2026-05-05 13:09 13.26781 77.99820 13016 ft 288 kts 192°
2026-05-05 13:09 13.24810 77.99405 12703 ft 288 kts 192°
2026-05-05 13:09 13.22943 77.98791 12433 ft 285 kts 209°
2026-05-05 13:09 13.21413 77.97492 11956 ft 282 kts 237°
2026-05-05 13:10 13.20659 77.95695 11496 ft 279 kts 262°
2026-05-05 13:10 13.20534 77.93717 11107 ft 276 kts 273°
2026-05-05 13:10 13.20718 77.91773 10750 ft 273 kts 282°
2026-05-05 13:10 13.20869 77.89840 10375 ft 273 kts 268°
2026-05-05 13:11 13.20718 77.87898 10019 ft 271 kts 268°
2026-05-05 13:11 13.20648 77.85971 9670 ft 270 kts 272°
2026-05-05 13:11 13.20665 77.84045 9308 ft 269 kts 272°
2026-05-05 13:11 13.20649 77.82074 8266 ft 290 kts 271°
2026-05-05 13:12 13.20563 77.79981 7288 ft 299 kts 270°
2026-05-05 13:12 13.20523 77.77634 4946 ft 358 kts 271°
2026-05-05 13:12 13.20612 77.74992 3534 ft 373 kts 274°
2026-05-05 13:12 13.20684 77.72413 3049 ft 345 kts 270°
2026-05-05 13:13 13.20712 77.70168 2972 ft 267 kts 266°
2026-05-05 13:13 13.20686 77.68690 3095 ft 159 kts 269°